#timestamp,LO_Frequency,Hit,StdDev 
1590825615.8,286046999.3,N
1590825635.7,286046997.3,N
1590825655.5,286046996.6,N
1590825675.4,286046999.1,N
1590825695.2,286046996.5,N
1590825715.0,286046999.5,N
1590825715.9,286046999.5,N
1590825735.8,286046998.9,N
1590825755.6,286047002.8,N
1590825775.5,286047000.7,N
1590825795.3,286046997.8,N
1590825815.1,286046997.0,N
1590825835.9,286046999.0,N
1590825855.7,286046996.7,N
1590825875.6,286046997.2,N
1590825895.4,286046997.9,N
1590825915.2,286046997.0,N
1590825935.1,286046999.0,N
1590825936.0,286046999.0,N
1590825955.8,286046997.0,N
1590825975.6,286046998.2,N
1590825995.5,286046998.7,N
1590826015.3,286046999.1,N
1590826035.2,286046999.6,N
1590826055.9,286046998.9,N
1590826075.7,286047001.0,N
1590826095.6,286046998.9,N
1590826115.4,286046999.6,N
1590826135.2,286046997.1,N
1590826155.1,286046995.8,N
1590826156.0,286046995.8,N
1590826175.8,286046995.5,N
1590826195.7,286046997.1,N
1590826215.5,286046999.2,N
1590826235.3,286047000.8,N
1590826255.2,286046998.6,N
1590826275.0,286047000.6,N
1590826275.9,286047000.6,N
1590826295.8,286047000.8,N
1590826315.6,286046998.1,N
1590826335.4,286046998.9,N
1590826355.3,286047000.8,N
1590826375.1,286047001.1,N
1590826395.8,286046998.9,N
1590826415.7,286046998.3,N
1590826435.5,286046998.8,N
1590826455.4,286046999.1,N
1590826475.2,286046998.8,N
1590826495.0,286046998.3,N
1590826495.9,286046998.3,N
1590826515.8,286046998.2,N
1590826535.6,286047000.8,N
1590826555.5,286046998.2,N
1590826575.3,286046998.5,N
1590826595.1,286046998.4,N
1590826615.9,286046997.3,N
1590826635.7,286046997.0,N
1590826655.5,286046999.4,N
1590826675.4,286046999.6,N
1590826695.2,286046996.7,N
1590826715.1,286046995.6,Y
1590826716.0,286046995.6,P
1590826735.8,286046994.9,P
1590826755.6,286046996.7,N
1590826775.5,286046998.1,N
1590826795.3,286046996.7,N
1590826815.2,286046998.9,N
1590826835.9,286047000.8,N
1590826855.7,286046999.1,N
1590826875.6,286046999.4,N
1590826895.4,286047001.0,N
1590826915.3,286047002.5,N
1590826935.1,286047001.6,N
1590826936.0,286047001.6,N
1590826955.8,286046998.3,N
1590826975.7,286047000.0,N
1590826995.5,286046999.8,N
1590827015.3,286047000.1,N
1590827035.2,286046998.2,N
1590827055.0,286046998.5,N
1590827055.9,286046998.5,N
1590827075.8,286047001.0,N
1590827095.6,286046999.3,N
1590827115.4,286046999.2,N
1590827135.3,286047002.7,N
1590827155.1,286047002.5,N
1590827175.9,286047002.7,N
1590827195.7,286047000.1,N
1590827215.5,286047000.6,N
1590827235.4,286047000.3,N
1590827255.2,286047000.8,N
1590827275.0,286047000.1,N
1590827275.9,286047000.1,N
1590827295.8,286047001.0,N
1590827315.6,286047002.2,N
1590827335.5,286047000.0,N
1590827355.3,286047002.7,N
1590827375.1,286047000.8,N
1590827395.9,286046998.1,N
1590827415.7,286047002.7,N
1590827435.5,286047001.4,N
1590827455.4,286047001.6,N
1590827475.2,286047002.4,N
1590827495.1,286047002.0,N
1590827496.0,286047002.0,N
1590827515.8,286047002.5,N
1590827535.7,286047000.1,N
1590827555.5,286046999.9,N
1590827575.3,286047002.4,N
1590827595.2,286047000.1,N
1590827615.0,286047002.7,N
1590827615.9,286047002.7,N
1590827635.7,286046999.8,N
1590827655.6,286046999.9,N
1590827675.4,286047000.8,N
1590827695.3,286047000.2,N
1590827715.1,286047004.3,Y
1590827735.8,286047000.1,P
1590827755.7,286047002.1,P
1590827775.5,286047001.4,N
1590827795.4,286047001.8,N
1590827815.2,286047002.0,N
1590827835.0,286047001.6,N
1590827835.9,286047001.6,N
1590827855.8,286046999.8,N
1590827875.6,286047002.3,N
1590827895.4,286047002.1,N
1590827915.3,286046999.9,N
1590827935.1,286047002.2,N
1590827955.9,286047000.1,N
1590827975.7,286047002.8,Y
1590827995.5,286047001.2,P
1590828015.4,286047000.4,P
1590828035.2,286046998.4,P
1590828055.1,286046998.8,N
1590828056.0,286046998.8,N
1590828075.8,286046999.2,N
1590828095.6,286046998.9,N
1590828115.5,286046999.5,N
1590828135.3,286046999.7,N
1590828155.1,286047000.3,N
1590828175.9,286047001.6,N
1590828195.7,286047000.1,N
1590828215.6,286047000.0,N
1590828235.4,286046999.9,N
1590828255.2,286047002.1,N
1590828275.1,286046999.8,N
1590828276.0,286046999.8,N
1590828295.8,286047002.2,N
1590828315.7,286047001.5,N
1590828335.5,286047002.2,N
1590828355.3,286047001.6,N
1590828375.2,286047004.3,Y
1590828395.0,286047002.0,P
1590828395.9,286047002.0,N
1590828415.7,286046999.8,N
1590828435.6,286046999.1,N
1590828455.4,286046996.5,Y
1590828475.3,286046996.7,P
1590828495.1,286046998.2,N
1590828515.8,286047000.0,N
1590828535.7,286046998.8,N
1590828555.5,286046997.8,N
1590828575.4,286046995.1,Y
1590828595.2,286046998.9,P
1590828615.0,286046998.9,P
1590828615.9,286046998.9,P
1590828635.8,286047000.9,Y
1590828655.6,286047000.3,P
1590828675.5,286046998.5,N
1590828695.3,286046996.5,P
1590828715.1,286046999.6,N
1590828735.9,286046998.5,N
1590828755.7,286046999.8,N
1590828775.5,286047001.1,N
1590828795.4,286047001.1,N
1590828815.2,286047000.8,N
1590828835.1,286047001.7,N
1590828836.0,286047001.7,N
1590828855.8,286047002.4,N
1590828875.6,286046999.4,N
1590828895.5,286047001.2,N
1590828915.3,286047000.6,N
1590828935.2,286046999.5,N
1590828955.9,286046999.6,N
1590828975.7,286046997.4,N
1590828995.6,286046998.8,N
1590829015.4,286046997.0,N
1590829035.2,286046997.3,N
1590829055.1,286046996.9,N
1590829056.0,286046996.9,N
1590829075.8,286046999.2,N
1590829095.7,286046998.2,N
1590829115.5,286046996.5,N
1590829135.3,286046996.8,N
1590829155.2,286046995.7,N
1590829175.0,286046995.4,N
1590829175.9,286046995.4,N
1590829195.8,286046995.0,N
